QPF
0.10 0.17 0.19 0.13 0.11 0.11 0.10 0.09 0.08 0.08 0.08 0.07 0.08 0.08 0.08 0.09 0.08 0.06 0.05 0.04 0.05 0.06 0.06 0.06 0.06 0.07 0.08 0.08 0.07 0.07 0.07 0.06 0.06 0.06 0.05 0.05 0.07 0.07 0.07 0.07 0.08 0.07 0.07
0.10 0.10 0.11 0.14 0.17 0.13 0.12 0.10 0.09 0.09 0.08 0.08 0.09 0.09 0.09 0.10 0.10 0.09 0.08 0.07 0.08 0.09 0.10 0.10 0.09 0.09 0.09 0.09 0.07 0.07 0.07 0.06 0.07 0.07 0.06 0.05 0.07 0.08 0.07 0.08 0.07 0.07 0.06
0.12 0.11 0.12 0.15 0.11 0.08 0.07 0.08 0.07 0.08 0.08 0.08 0.08 0.09 0.09 0.08 0.09 0.10 0.11 0.11 0.12 0.12 0.12 0.12 0.12 0.12 0.10 0.08 0.07 0.06 0.06 0.05 0.06 0.06 0.05 0.04 0.05 0.06 0.07 0.08 0.08 0.07 0.07
0.09 0.14 0.12 0.13 0.12 0.09 0.07 0.07 0.07 0.06 0.07 0.06 0.07 0.08 0.08 0.08 0.09 0.11 0.12 0.13 0.14 0.14 0.12 0.10 0.10 0.09 0.08 0.08 0.07 0.07 0.06 0.05 0.04 0.05 0.04 0.04 0.04 0.05 0.06 0.07 0.08 0.10 0.11
0.09 0.16 0.15 0.10 0.11 0.10 0.07 0.06 0.05 0.05 0.05 0.05 0.06 0.07 0.08 0.10 0.11 0.12 0.14 0.15 0.16 0.16 0.13 0.11 0.08 0.07 0.07 0.06 0.05 0.05 0.04 0.03 0.03 0.02 0.03 0.04 0.04 0.04 0.06 0.07 0.08 0.11 0.11
0.06 0.10 0.08 0.05 0.05 0.06 0.05 0.06 0.06 0.04 0.04 0.04 0.05 0.06 0.08 0.10 0.12 0.12 0.12 0.12 0.12 0.13 0.11 0.08 0.06 0.06 0.05 0.04 0.04 0.04 0.03 0.03 0.02 0.02 0.02 0.03 0.05 0.06 0.06 0.06 0.08 0.09 0.11
0.04 0.06 0.05 0.03 0.03 0.04 0.04 0.05 0.05 0.04 0.04 0.04 0.05 0.06 0.07 0.08 0.07 0.08 0.09 0.09 0.08 0.08 0.06 0.05 0.05 0.05 0.05 0.05 0.05 0.04 0.04 0.03 0.03 0.02 0.02 0.03 0.03 0.04 0.04 0.04 0.05 0.05 0.06
0.03 0.04 0.04 0.05 0.06 0.06 0.05 0.05 0.05 0.04 0.05 0.05 0.05 0.06 0.06 0.06 0.06 0.05 0.06 0.07 0.07 0.06 0.05 0.05 0.05 0.04 0.04 0.05 0.05 0.05 0.05 0.04 0.03 0.02 0.02 0.03 0.03 0.04 0.04 0.04 0.05 0.04 0.02
0.04 0.04 0.04 0.08 0.13 0.11 0.10 0.05 0.07 0.05 0.05 0.05 0.05 0.05 0.04 0.03 0.03 0.03 0.03 0.04 0.05 0.04 0.04 0.05 0.05 0.04 0.03 0.03 0.04 0.03 0.03 0.03 0.03 0.02 0.01 0.01 0.02 0.02 0.03 0.04 0.05 0.05 0.03
0.04 0.03 0.03 0.05 0.05 0.04 0.04 0.04 0.04 0.04 0.05 0.06 0.06 0.05 0.04 0.04 0.04 0.04 0.04 0.05 0.06 0.05 0.06 0.05 0.04 0.03 0.02 0.02 0.02 0.02 0.02 0.02 0.02 0.02 0.01 0.01 0.01 0.01 0.02 0.03 0.04 0.05 0.05
0.03 0.02 0.03 0.03 0.03 0.02 0.02 0.03 0.05 0.06 0.07 0.07 0.07 0.07 0.06 0.05 0.06 0.07 0.08 0.08 0.06 0.04 0.04 0.04 0.04 0.03 0.02 0.01 0.01 0.01 0.01 0.01 0.02 0.02 0.01 0.01 0.01 0.01 0.01 0.02 0.02 0.03 0.04
0.02 0.02 0.03 0.02 0.02 0.02 0.03 0.04 0.04 0.05 0.05 0.05 0.05 0.05 0.05 0.05 0.05 0.06 0.08 0.09 0.08 0.06 0.05 0.05 0.05 0.05 0.04 0.03 0.02 0.01 0.01 0.01 0.01 0.01 0.01 0.01 0.01 0.01 0.00 0.01 0.01 0.01 0.02
0.02 0.02 0.02 0.01 0.01 0.02 0.03 0.04 0.05 0.05 0.05 0.05 0.04 0.05 0.04 0.03 0.04 0.06 0.09 0.09 0.08 0.07 0.06 0.05 0.04 0.05 0.04 0.03 0.03 0.02 0.01 0.01 0.01 0.01 0.01 0.01 0.01 0.01 0.01 0.01 0.01 0.01 0.02
0.03 0.02 0.02 0.02 0.02 0.02 0.03 0.05 0.06 0.05 0.05 0.05 0.04 0.03 0.03 0.03 0.03 0.05 0.06 0.06 0.06 0.06 0.06 0.05 0.04 0.03 0.03 0.02 0.02 0.01 0.01 0.00 0.00 0.01 0.02 0.02 0.01 0.01 0.01 0.01 0.00 0.01 0.01
0.04 0.03 0.02 0.02 0.02 0.02 0.03 0.04 0.06 0.05 0.04 0.03 0.03 0.03 0.03 0.03 0.04 0.04 0.04 0.03 0.03 0.03 0.04 0.04 0.03 0.02 0.02 0.02 0.01 0.01 0.00 0.00 0.00 0.00 0.01 0.01 0.02 0.02 0.01 0.01 0.01 0.01 0.01
0.05 0.05 0.04 0.03 0.03 0.03 0.03 0.02 0.04 0.04 0.03 0.03 0.04 0.04 0.03 0.02 0.02 0.03 0.03 0.04 0.04 0.04 0.03 0.03 0.02 0.01 0.01 0.02 0.01 0.01 0.00 0.00 0.00 0.00 0.01 0.01 0.01 0.01 0.01 0.01 0.01 0.01 0.01
0.07 0.06 0.05 0.04 0.03 0.02 0.02 0.02 0.02 0.02 0.02 0.02 0.02 0.03 0.02 0.02 0.02 0.02 0.02 0.03 0.04 0.05 0.05 0.04 0.03 0.03 0.03 0.03 0.02 0.01 0.00 0.00 0.00 0.00 0.01 0.01 0.01 0.01 0.01 0.01 0.01 0.01 0.01
0.03 0.04 0.05 0.04 0.03 0.03 0.02 0.02 0.02 0.02 0.02 0.01 0.01 0.02 0.02 0.01 0.01 0.01 0.02 0.02 0.03 0.04 0.04 0.05 0.04 0.03 0.03 0.03 0.02 0.02 0.01 0.01 0.00 0.00 0.01 0.01 0.01 0.01 0.01 0.01 0.01 0.00 0.01
0.03 0.03 0.04 0.04 0.03 0.02 0.01 0.01 0.02 0.02 0.02 0.01 0.01 0.01 0.02 0.02 0.02 0.02 0.02 0.02 0.02 0.03 0.05 0.04 0.03 0.03 0.02 0.02 0.01 0.01 0.02 0.02 0.01 0.00 0.00 0.01 0.01 0.01 0.02 0.01 0.01 0.01 0.01
0.03 0.03 0.03 0.03 0.03 0.03 0.02 0.01 0.02 0.03 0.02 0.01 0.01 0.01 0.02 0.03 0.03 0.03 0.03 0.03 0.03 0.03 0.04 0.03 0.03 0.03 0.02 0.02 0.01 0.01 0.02 0.01 0.01 0.01 0.00 0.01 0.01 0.01 0.01 0.01 0.01 0.01 0.01
0.02 0.02 0.02 0.01 0.01 0.03 0.05 0.03 0.03 0.04 0.03 0.02 0.01 0.01 0.02 0.03 0.04 0.04 0.03 0.03 0.03 0.04 0.05 0.04 0.04 0.04 0.04 0.03 0.02 0.01 0.01 0.01 0.01 0.02 0.01 0.01 0.00 0.00 0.00 0.01 0.01 0.01 0.01
0.02 0.02 0.01 0.01 0.00 0.01 0.04 0.06 0.06 0.05 0.04 0.03 0.02 0.01 0.02 0.04 0.06 0.05 0.03 0.03 0.03 0.04 0.04 0.04 0.03 0.02 0.02 0.02 0.01 0.01 0.01 0.01 0.01 0.01 0.01 0.01 0.00 0.00 0.00 0.00 0.01 0.01 0.01
0.02 0.01 0.01 0.01 0.01 0.01 0.01 0.02 0.04 0.04 0.04 0.03 0.02 0.01 0.01 0.03 0.05 0.06 0.04 0.02 0.01 0.01 0.01 0.01 0.01 0.00 0.00 0.00 0.00 0.00 0.00 0.01 0.01 0.01 0.02 0.01 0.00 0.01 0.01 0.01 0.01 0.01 0.01
0.00 0.01 0.01 0.01 0.01 0.01 0.01 0.01 0.01 0.01 0.02 0.01 0.01 0.01 0.01 0.01 0.02 0.03 0.02 0.01 0.01 0.00 0.01 0.01 0.01 0.00 0.00 0.00 0.00 0.00 0.00 0.00 0.00 0.01 0.01 0.01 0.01 0.00 0.01 0.01 0.01 0.01 0.01
0.00 0.00 0.01 0.01 0.01 0.01 0.01 0.01 0.01 0.01 0.01 0.01 0.01 0.01 0.01 0.01 0.01 0.01 0.01 0.01 0.01 0.01 0.01 0.01 0.01 0.00 0.00 0.00 0.00 0.00 0.00 0.00 0.00 0.00 0.01 0.01 0.01 0.01 0.01 0.01 0.01 0.01 0.01
0.00 0.01 0.01 0.00 0.00 0.00 0.01 0.01 0.02 0.02 0.02 0.02 0.01 0.01 0.01 0.00 0.00 0.00 0.00 0.00 0.01 0.01 0.01 0.00 0.01 0.01 0.01 0.01 0.01 0.01 0.00 0.00 0.00 0.01 0.01 0.01 0.01 0.01 0.01 0.01 0.01 0.01 0.01
MSLP
1014.49 1014.51 1014.46 1014.33 1014.14 1013.89 1013.62 1013.34 1013.09 1012.88 1012.73 1012.63 1012.57 1012.53 1012.50 1012.45 1012.38 1012.29 1012.22 1012.19 1012.21 1012.32 1012.51 1012.78 1013.10 1013.42 1013.71 1013.93 1014.05 1014.08 1014.02 1013.89 1013.75 1013.60 1013.49 1013.42 1013.38 1013.37 1013.36 1013.35 1013.33 1013.30 1013.28
1015.46 1015.43 1015.30 1015.07 1014.76 1014.40 1014.02 1013.66 1013.36 1013.13 1012.96 1012.85 1012.77 1012.69 1012.57 1012.42 1012.22 1012.01 1011.81 1011.69 1011.65 1011.74 1011.95 1012.25 1012.61 1012.96 1013.26 1013.46 1013.55 1013.52 1013.41 1013.25 1013.10 1012.98 1012.92 1012.92 1012.97 1013.04 1013.12 1013.17 1013.18 1013.18 1013.16
1016.29 1016.25 1016.08 1015.80 1015.43 1014.99 1014.54 1014.12 1013.77 1013.51 1013.33 1013.21 1013.10 1012.97 1012.79 1012.53 1012.22 1011.89 1011.58 1011.35 1011.24 1011.28 1011.46 1011.75 1012.10 1012.44 1012.72 1012.88 1012.92 1012.85 1012.71 1012.53 1012.38 1012.30 1012.30 1012.39 1012.53 1012.71 1012.86 1012.98 1013.04 1013.06 1013.05
1016.91 1016.90 1016.77 1016.49 1016.10 1015.64 1015.15 1014.69 1014.31 1014.03 1013.83 1013.69 1013.56 1013.40 1013.16 1012.83 1012.43 1012.00 1011.58 1011.25 1011.05 1011.01 1011.12 1011.36 1011.65 1011.93 1012.15 1012.26 1012.25 1012.14 1011.96 1011.79 1011.66 1011.62 1011.69 1011.85 1012.08 1012.34 1012.57 1012.75 1012.86 1012.90 1012.91
1017.29 1017.37 1017.32 1017.11 1016.76 1016.32 1015.83 1015.36 1014.97 1014.67 1014.45 1014.30 1014.15 1013.96 1013.69 1013.31 1012.85 1012.34 1011.84 1011.41 1011.11 1010.97 1010.98 1011.11 1011.31 1011.50 1011.64 1011.68 1011.61 1011.46 1011.26 1011.09 1010.98 1010.98 1011.10 1011.32 1011.61 1011.93 1012.22 1012.45 1012.59 1012.67 1012.71
1017.46 1017.67 1017.74 1017.64 1017.38 1017.00 1016.54 1016.08 1015.68 1015.37 1015.14 1014.98 1014.82 1014.62 1014.33 1013.94 1013.44 1012.88 1012.32 1011.81 1011.41 1011.16 1011.05 1011.06 1011.14 1011.22 1011.26 1011.22 1011.09 1010.90 1010.69 1010.51 1010.41 1010.43 1010.58 1010.83 1011.15 1011.49 1011.81 1012.07 1012.25 1012.36 1012.43
1017.50 1017.85 1018.06 1018.09 1017.93 1017.63 1017.22 1016.79 1016.40 1016.08 1015.84 1015.67 1015.51 1015.31 1015.03 1014.63 1014.13 1013.55 1012.95 1012.38 1011.90 1011.55 1011.32 1011.21 1011.16 1011.13 1011.07 1010.95 1010.77 1010.54 1010.31 1010.12 1010.02 1010.03 1010.17 1010.41 1010.73 1011.06 1011.39 1011.65 1011.86 1012.00 1012.11
1017.49 1017.96 1018.29 1018.44 1018.39 1018.16 1017.81 1017.41 1017.03 1016.71 1016.47 1016.29 1016.13 1015.95 1015.69 1015.32 1014.83 1014.26 1013.65 1013.05 1012.51 1012.07 1011.74 1011.52 1011.36 1011.23 1011.08 1010.90 1010.67 1010.41 1010.16 1009.96 1009.84 1009.82 1009.92 1010.12 1010.39 1010.69 1010.99 1011.25 1011.47 1011.64 1011.80
1017.50 1018.05 1018.47 1018.71 1018.73 1018.57 1018.26 1017.89 1017.52 1017.20 1016.96 1016.78 1016.64 1016.47 1016.24 1015.90 1015.46 1014.92 1014.32 1013.71 1013.14 1012.65 1012.26 1011.95 1011.71 1011.50 1011.29 1011.06 1010.80 1010.53 1010.26 1010.03 1009.88 1009.82 1009.86 1009.99 1010.20 1010.43 1010.68 1010.92 1011.14 1011.34 1011.54
1017.58 1018.16 1018.62 1018.89 1018.95 1018.81 1018.53 1018.18 1017.82 1017.51 1017.28 1017.10 1016.97 1016.83 1016.63 1016.33 1015.93 1015.44 1014.87 1014.29 1013.73 1013.22 1012.79 1012.44 1012.15 1011.90 1011.66 1011.41 1011.14 1010.85 1010.57 1010.32 1010.14 1010.02 1010.00 1010.05 1010.17 1010.33 1010.52 1010.73 1010.94 1011.16 1011.39
1017.74 1018.30 1018.73 1018.98 1019.03 1018.90 1018.62 1018.28 1017.93 1017.63 1017.40 1017.24 1017.12 1017.00 1016.83 1016.58 1016.23 1015.78 1015.27 1014.72 1014.19 1013.70 1013.27 1012.92 1012.62 1012.37 1012.12 1011.87 1011.61 1011.33 1011.04 1010.78 1010.56 1010.40 1010.30 1010.28 1010.31 1010.40 1010.53 1010.70 1010.89 1011.10 1011.34
1017.96 1018.45 1018.81 1019.00 1019.00 1018.84 1018.56 1018.21 1017.88 1017.59 1017.37 1017.23 1017.12 1017.02 1016.87 1016.66 1016.35 1015.95 1015.49 1015.00 1014.51 1014.06 1013.67 1013.34 1013.07 1012.83 1012.61 1012.37 1012.13 1011.87 1011.59 1011.32 1011.08 1010.88 1010.73 1010.63 1010.60 1010.62 1010.69 1010.81 1010.96 1011.16 1011.39
1018.20 1018.59 1018.85 1018.95 1018.88 1018.68 1018.38 1018.04 1017.71 1017.44 1017.25 1017.11 1017.02 1016.92 1016.79 1016.60 1016.32 1015.97 1015.57 1015.13 1014.70 1014.31 1013.97 1013.69 1013.45 1013.25 1013.05 1012.85 1012.63 1012.39 1012.13 1011.87 1011.61 1011.38 1011.20 1011.06 1010.97 1010.93 1010.95 1011.02 1011.14 1011.29 1011.49
1018.39 1018.68 1018.83 1018.83 1018.69 1018.44 1018.13 1017.80 1017.50 1017.25 1017.07 1016.95 1016.86 1016.77 1016.65 1016.46 1016.21 1015.89 1015.53 1015.15 1014.79 1014.45 1014.17 1013.94 1013.75 1013.59 1013.43 1013.26 1013.07 1012.84 1012.60 1012.34 1012.09 1011.85 1011.64 1011.48 1011.35 1011.28 1011.25 1011.28 1011.34 1011.45 1011.59
1018.50 1018.69 1018.74 1018.66 1018.46 1018.18 1017.87 1017.55 1017.28 1017.07 1016.91 1016.80 1016.71 1016.61 1016.48 1016.29 1016.05 1015.76 1015.44 1015.11 1014.81 1014.54 1014.31 1014.13 1013.99 1013.86 1013.73 1013.58 1013.40 1013.19 1012.96 1012.71 1012.46 1012.22 1012.01 1011.83 1011.70 1011.59 1011.53 1011.51 1011.53 1011.58 1011.66
1018.50 1018.60 1018.58 1018.44 1018.20 1017.91 1017.61 1017.33 1017.10 1016.92 1016.78 1016.68 1016.59 1016.48 1016.33 1016.14 1015.90 1015.63 1015.34 1015.06 1014.81 1014.59 1014.42 1014.29 1014.18 1014.07 1013.96 1013.82 1013.64 1013.44 1013.21 1012.96 1012.72 1012.49 1012.28 1012.10 1011.96 1011.84 1011.76 1011.70 1011.66 1011.65 1011.66
1018.37 1018.42 1018.34 1018.16 1017.92 1017.65 1017.38 1017.15 1016.95 1016.81 1016.70 1016.60 1016.50 1016.38 1016.22 1016.02 1015.78 1015.52 1015.27 1015.03 1014.83 1014.67 1014.54 1014.44 1014.36 1014.27 1014.15 1014.00 1013.82 1013.61 1013.37 1013.12 1012.88 1012.66 1012.46 1012.28 1012.13 1012.01 1011.90 1011.81 1011.73 1011.66 1011.61
1018.12 1018.13 1018.03 1017.85 1017.63 1017.39 1017.17 1016.98 1016.84 1016.73 1016.64 1016.55 1016.45 1016.31 1016.14 1015.94 1015.71 1015.47 1015.25 1015.06 1014.90 1014.78 1014.69 1014.62 1014.55 1014.46 1014.34 1014.18 1013.98 1013.75 1013.50 1013.24 1012.99 1012.77 1012.57 1012.39 1012.24 1012.10 1011.98 1011.86 1011.74 1011.63 1011.52
1017.78 1017.77 1017.67 1017.51 1017.32 1017.14 1016.97 1016.84 1016.74 1016.66 1016.59 1016.51 1016.41 1016.27 1016.09 1015.89 1015.68 1015.47 1015.29 1015.13 1015.02 1014.94 1014.88 1014.83 1014.77 1014.68 1014.54 1014.37 1014.15 1013.90 1013.63 1013.36 1013.10 1012.87 1012.66 1012.48 1012.31 1012.16 1012.01 1011.87 1011.71 1011.56 1011.42
1017.39 1017.38 1017.30 1017.16 1017.02 1016.88 1016.77 1016.69 1016.63 1016.59 1016.54 1016.47 1016.37 1016.23 1016.07 1015.88 1015.69 1015.51 1015.36 1015.25 1015.17 1015.12 1015.09 1015.05 1015.00 1014.91 1014.76 1014.58 1014.34 1014.08 1013.79 1013.51 1013.24 1012.99 1012.77 1012.57 1012.38 1012.21 1012.03 1011.85 1011.67 1011.49 1011.31
1017.00 1016.99 1016.93 1016.84 1016.74 1016.65 1016.59 1016.55 1016.52 1016.50 1016.47 1016.42 1016.33 1016.20 1016.05 1015.89 1015.72 1015.57 1015.46 1015.37 1015.32 1015.30 1015.28 1015.26 1015.21 1015.11 1014.97 1014.78 1014.55 1014.28 1013.99 1013.70 1013.41 1013.15 1012.90 1012.67 1012.46 1012.25 1012.04 1011.83 1011.61 1011.40 1011.20
1016.65 1016.65 1016.61 1016.56 1016.50 1016.45 1016.42 1016.41 1016.42 1016.42 1016.40 1016.36 1016.28 1016.18 1016.05 1015.91 1015.77 1015.64 1015.54 1015.48 1015.44 1015.42 1015.41 1015.39 1015.34 1015.26 1015.12 1014.94 1014.72 1014.46 1014.18 1013.89 1013.60 1013.32 1013.05 1012.78 1012.52 1012.27 1012.02 1011.77 1011.52 1011.28 1011.06
1016.36 1016.39 1016.37 1016.34 1016.31 1016.30 1016.29 1016.30 1016.32 1016.33 1016.33 1016.30 1016.24 1016.15 1016.04 1015.92 1015.80 1015.69 1015.60 1015.54 1015.49 1015.46 1015.44 1015.41 1015.37 1015.29 1015.17 1015.01 1014.81 1014.58 1014.32 1014.04 1013.75 1013.46 1013.16 1012.86 1012.56 1012.25 1011.95 1011.66 1011.38 1011.11 1010.87
1016.15 1016.20 1016.21 1016.21 1016.20 1016.19 1016.20 1016.22 1016.24 1016.26 1016.26 1016.24 1016.20 1016.13 1016.04 1015.93 1015.81 1015.70 1015.60 1015.52 1015.45 1015.39 1015.35 1015.30 1015.24 1015.16 1015.06 1014.93 1014.77 1014.58 1014.35 1014.10 1013.81 1013.51 1013.19 1012.85 1012.50 1012.15 1011.80 1011.47 1011.15 1010.86 1010.60
1016.00 1016.08 1016.11 1016.13 1016.13 1016.13 1016.14 1016.15 1016.17 1016.18 1016.19 1016.18 1016.14 1016.09 1016.01 1015.90 1015.79 1015.66 1015.53 1015.41 1015.30 1015.20 1015.11 1015.03 1014.95 1014.88 1014.79 1014.69 1014.57 1014.42 1014.23 1014.00 1013.73 1013.42 1013.08 1012.71 1012.33 1011.93 1011.54 1011.17 1010.82 1010.51 1010.25
1015.89 1015.99 1016.04 1016.07 1016.07 1016.07 1016.07 1016.07 1016.08 1016.08 1016.09 1016.08 1016.05 1016.00 1015.93 1015.83 1015.70 1015.55 1015.39 1015.21 1015.05 1014.89 1014.75 1014.63 1014.53 1014.44 1014.37 1014.29 1014.20 1014.08 1013.93 1013.73 1013.47 1013.17 1012.82 1012.43 1012.01 1011.58 1011.15 1010.75 1010.38 1010.07 1009.80
Thickness
5736 5735 5734 5734 5732 5729 5726 5723 5721 5718 5716 5713 5709 5706 5703 5703 5701 5700 5698 5696 5694 5691 5689 5686 5684 5683 5681 5680 5679 5679 5677 5676 5677 5676 5676 5679 5681 5683 5684 5684 5684 5683 5684
5729 5728 5727 5725 5723 5721 5719 5716 5714 5711 5709 5707 5705 5702 5699 5696 5694 5691 5690 5688 5686 5684 5682 5679 5676 5675 5673 5672 5671 5670 5668 5667 5667 5664 5663 5663 5666 5671 5675 5675 5676 5676 5677
5725 5723 5721 5717 5714 5713 5712 5709 5706 5704 5703 5701 5698 5695 5690 5688 5684 5682 5680 5680 5678 5675 5673 5671 5669 5667 5665 5663 5662 5661 5659 5657 5657 5657 5654 5652 5652 5655 5662 5664 5666 5667 5669
5722 5718 5715 5711 5708 5706 5704 5702 5699 5697 5695 5693 5689 5686 5681 5677 5675 5673 5671 5670 5669 5667 5665 5662 5660 5659 5657 5655 5654 5653 5652 5650 5648 5648 5648 5647 5646 5645 5648 5653 5655 5658 5660
5717 5713 5710 5707 5703 5701 5698 5695 5691 5688 5686 5684 5682 5678 5674 5670 5667 5665 5662 5661 5659 5657 5656 5654 5652 5650 5649 5647 5646 5645 5644 5642 5640 5639 5639 5639 5638 5638 5637 5640 5644 5647 5650
5712 5708 5705 5702 5696 5693 5690 5687 5684 5680 5678 5676 5673 5670 5666 5663 5659 5656 5653 5651 5650 5648 5647 5645 5643 5641 5640 5638 5638 5637 5636 5634 5634 5633 5632 5631 5630 5629 5629 5630 5632 5635 5640
5705 5701 5697 5694 5690 5686 5683 5679 5676 5672 5670 5667 5665 5662 5659 5655 5652 5649 5646 5644 5641 5639 5638 5637 5635 5633 5631 5630 5630 5629 5628 5627 5626 5625 5625 5624 5624 5624 5623 5622 5623 5625 5629
5701 5696 5692 5688 5684 5680 5677 5672 5668 5665 5662 5659 5656 5653 5650 5647 5644 5641 5639 5637 5634 5632 5631 5629 5627 5625 5623 5622 5621 5620 5620 5619 5619 5618 5617 5616 5617 5617 5617 5616 5615 5615 5618
5695 5690 5685 5682 5678 5674 5670 5666 5661 5657 5654 5651 5648 5644 5641 5639 5636 5634 5632 5630 5628 5626 5624 5622 5620 5618 5616 5614 5613 5611 5611 5610 5610 5610 5609 5608 5609 5610 5610 5610 5610 5608 5608
5689 5684 5680 5676 5672 5668 5664 5660 5655 5650 5647 5644 5640 5637 5633 5630 5628 5626 5624 5622 5621 5619 5617 5615 5613 5611 5609 5607 5605 5604 5603 5602 5602 5602 5601 5601 5602 5602 5602 5602 5602 5602 5602
5684 5679 5674 5670 5665 5660 5656 5652 5648 5644 5640 5636 5632 5629 5626 5622 5620 5618 5617 5616 5614 5613 5610 5608 5606 5603 5601 5599 5598 5597 5596 5595 5594 5594 5594 5594 5594 5594 5594 5595 5595 5595 5595
5678 5673 5668 5663 5658 5653 5649 5646 5642 5638 5634 5630 5626 5622 5618 5615 5613 5612 5611 5609 5608 5606 5604 5602 5599 5597 5595 5593 5591 5590 5589 5588 5587 5587 5587 5587 5588 5587 5587 5587 5587 5587 5588
5672 5667 5661 5656 5652 5648 5644 5641 5637 5633 5629 5624 5619 5615 5612 5609 5607 5605 5604 5603 5601 5599 5597 5595 5593 5591 5589 5587 5585 5584 5583 5582 5581 5581 5581 5581 5581 5580 5579 5579 5579 5580 5582
5666 5661 5654 5650 5647 5643 5639 5636 5632 5628 5624 5619 5614 5610 5606 5603 5601 5599 5598 5596 5595 5593 5591 5589 5587 5585 5583 5581 5580 5578 5577 5576 5576 5576 5575 5575 5574 5574 5573 5574 5573 5574 5574
5662 5657 5651 5646 5642 5638 5634 5631 5627 5623 5619 5614 5609 5605 5602 5599 5596 5594 5592 5591 5589 5588 5587 5584 5582 5580 5578 5576 5575 5573 5572 5571 5570 5570 5570 5570 5570 5570 5569 5569 5568 5568 5568
5660 5656 5650 5644 5639 5635 5631 5627 5622 5618 5614 5609 5605 5601 5598 5595 5592 5589 5587 5586 5584 5583 5581 5579 5577 5575 5574 5572 5571 5569 5567 5566 5565 5565 5565 5565 5565 5565 5565 5565 5565 5564 5563
5658 5653 5648 5642 5637 5633 5629 5623 5619 5615 5610 5605 5602 5598 5595 5591 5589 5587 5584 5582 5579 5578 5576 5574 5572 5570 5569 5569 5567 5566 5564 5562 5561 5560 5560 5561 5561 5559 5559 5559 5560 5560 5561
5655 5650 5645 5640 5635 5631 5626 5621 5616 5611 5607 5603 5599 5596 5592 5589 5586 5583 5580 5578 5576 5573 5571 5570 5568 5567 5566 5566 5565 5563 5561 5558 5557 5556 5555 5554 5554 5555 5554 5554 5554 5554 5555
5654 5648 5643 5638 5633 5628 5623 5618 5613 5608 5604 5601 5597 5594 5590 5586 5583 5580 5577 5575 5572 5571 5569 5567 5566 5564 5563 5563 5562 5561 5557 5555 5553 5553 5552 5551 5550 5551 5550 5549 5549 5550 5551
5651 5646 5641 5635 5630 5625 5621 5615 5610 5606 5603 5600 5596 5593 5588 5584 5581 5578 5575 5573 5571 5568 5567 5565 5564 5562 5561 5561 5560 5558 5554 5551 5549 5549 5548 5548 5548 5547 5547 5545 5545 5545 5547
5648 5644 5639 5633 5628 5624 5619 5613 5608 5605 5602 5599 5595 5591 5587 5583 5580 5577 5574 5572 5569 5567 5565 5563 5562 5561 5560 5559 5558 5556 5552 5549 5547 5545 5545 5545 5546 5545 5544 5543 5542 5543 5544
5645 5641 5635 5630 5627 5623 5617 5612 5607 5605 5602 5598 5594 5590 5586 5584 5581 5577 5574 5571 5568 5566 5564 5562 5561 5560 5559 5558 5556 5554 5551 5548 5545 5544 5544 5543 5544 5544 5543 5543 5543 5543 5543
5642 5638 5634 5629 5625 5621 5617 5611 5608 5605 5601 5597 5592 5589 5586 5584 5581 5577 5574 5571 5568 5565 5563 5561 5559 5559 5558 5557 5556 5553 5551 5548 5544 5544 5544 5544 5543 5543 5543 5544 5544 5543 5542
5640 5637 5632 5627 5623 5620 5616 5612 5609 5605 5600 5595 5591 5588 5586 5583 5581 5578 5575 5572 5569 5566 5564 5562 5559 5558 5557 5555 5554 5551 5550 5548 5545 5543 5543 5544 5544 5543 5544 5544 5544 5544 5542
5639 5635 5631 5626 5623 5620 5616 5613 5609 5605 5600 5595 5592 5589 5587 5584 5581 5579 5576 5574 5572 5569 5566 5563 5561 5558 5556 5557 5554 5551 5549 5546 5544 5542 5541 5542 5542 5542 5543 5543 5544 5544 5544
5638 5634 5630 5626 5623 5620 5616 5613 5610 5606 5601 5596 5593 5590 5587 5584 5581 5579 5577 5577 5574 5572 5569 5566 5563 5561 5559 5557 5555 5553 5550 5548 5545 5541 5540 5541 5541 5541 5542 5542 5544 5545 5545